This demonstration page uses our WeatherBlox Daily Observations layout. Learn more.

Left ArrowRight Arrow

Hourly Observations for May 4, 2020

Temp ( °F °C ) Dew Point ( °F °C ) Humidity (%) Winds ( mph kmh ) Pressure ( in mb ) Visibility ( mi km ) Precip ( " mm )
12:54 am 00:54 Clear 61 16.1 41 5 48 48 S 7 11 29.97 1015 10 16.0934 0 0
1:54 am 01:54 Clear 62 16.7 41 5 46 46 S 3 6 29.96 1014 10 16.0934 0 0
2:54 am 02:54 Clear 60 15.6 42 5.6 52 52 S 5 7 29.94 1014 10 16.0934 0 0
3:54 am 03:54 Cloudy 60 15.6 45 7.2 58 58 SSE 6 9 29.93 1014 10 16.0934 0.001 0.001
4:54 am 04:54 Cloudy with Light Rain 58 14.4 48 8.9 70 70 SSE 6 9 29.91 1013 10 16.0934 0.001 0.001
5:54 am 05:54 Mostly Cloudy 61 16.1 45 7.2 56 56 SSE 8 13 29.9 1013 10 16.0934 0.001 0.001
6:54 am 06:54 Cloudy with Light Rain 56 13.3 50 10 81 81 NNE 8 13 29.94 1014 10 16.0934 0.01 0.254
7:54 am 07:54 Cloudy 56 13.3 49 9.4 77 77 NE 13 20 29.93 1013 10 16.0934 0.01 0.254
8:54 am 08:54 Cloudy 55 12.8 49 9.4 80 80 NNE 8 13 29.96 1015 10 16.0934 0 0
9:54 am 09:54 Cloudy with Rain 54 12.2 50 10 87 87 ESE 15 24 29.93 1014 5 8.0467 0.07 1.778
10:54 am 10:54 Mostly Cloudy 57 13.9 46 7.8 67 67 E 6 9 29.9 1013 10 16.0934 0.07 1.778
11:54 am 11:54 Mostly Cloudy 63 17.2 48 8.9 58 58 ESE 15 24 29.9 1013 10 16.0934 0 0
12:54 pm 12:54 Cloudy 63 17.2 44 6.7 50 50 E 18 30 29.9 1013 10 16.0934 0 0
1:54 pm 13:54 Mostly Cloudy 63 17.2 45 7.2 52 52 ESE 17 28 29.88 1012 10 16.0934 0 0
2:54 pm 14:54 Cloudy 62 16.7 45 7.2 54 54 E 10 17 29.89 1012 10 16.0934 0 0
3:54 pm 15:54 Cloudy 60 15.6 45 7.2 58 58 E 12 19 29.91 1013 10 16.0934 0 0
4:54 pm 16:54 Cloudy 57 13.9 49 9.4 74 74 NNE 14 22 29.92 1013 10 16.0934 0 0
5:54 pm 17:54 Cloudy 56 13.3 49 9.4 77 77 NNE 15 24 29.93 1013 10 16.0934 0 0
6:54 pm 18:54 Cloudy 56 13.3 48 8.9 75 75 NNE 12 19 29.94 1014 10 16.0934 0 0
7:54 pm 19:54 Cloudy 55 12.8 48 8.9 77 77 NE 6 9 29.96 1015 10 16.0934 0 0
8:54 pm 20:54 Cloudy 54 12.2 48 8.9 80 80 NNE 6 9 29.99 1016 10 16.0934 0 0
9:54 pm 21:54 Cloudy 52 11.1 48 8.9 86 86 N 6 9 30.01 1016 10 16.0934 0 0
10:09 pm 22:09 Cloudy 53 11.7 49 9.4 86 86 N 5 7 30.01 1016 10 16.0934 0 0
10:34 pm 22:34 Cloudy 53 11.7 49 9.4 86 86 NNE 3 6 30.01 1016 10 16.0934 0 0
10:54 pm 22:54 Cloudy 53 11.7 49 9.4 86 86 N 5 7 30.01 1016 10 16.0934 0 0
11:23 pm 23:23 Cloudy 54 12.2 50 10 87 87 WNW 7 11 30.02 1017 8 12.87472 0 0
11:50 pm 23:50 Cloudy with Light Rain 54 12 46 8 77 77 NNW 30 48 30 1016 7 11.26538 0.01 0.254
11:54 pm 23:54 Cloudy with Light Rain 53 11.7 46 7.8 77 77 N 30 48 30 1016 10 16.0934 0.01 0.254

Powered by AerisWeather